Wetterdaten: Woche 05.02.18 - 11.02.18 (KW6)
Datum Zeit Temperatur Luftfeuchte Luftdruck Niederschlag Windrichtung Sonnenschein Solar Wind
05.02.2018 00:00 -2,4 C 91 % 1018,3 hPa 0,0 l/m W 0,00 h 0 W/m 1,1 km/h (0 Bft)
05.02.2018 01:00 -2,5 C 92 % 1018,4 hPa 0,0 l/m W-NW 0,00 h 0 W/m 4,4 km/h (1 Bft)
05.02.2018 02:00 -2,7 C 93 % 1018,8 hPa 0,0 l/m W-NW 0,00 h 0 W/m 7,1 km/h (2 Bft)
05.02.2018 03:00 -2,4 C 94 % 1019,0 hPa 0,0 l/m NO 0,00 h 0 W/m 12,0 km/h (2 Bft)
05.02.2018 04:00 -2,1 C 94 % 1019,2 hPa 0,0 l/m NO 0,00 h 0 W/m 13,6 km/h (3 Bft)
05.02.2018 05:00 -1,8 C 94 % 1019,3 hPa 0,0 l/m O 0,00 h 0 W/m 16,6 km/h (3 Bft)
05.02.2018 06:00 -1,7 C 93 % 1019,7 hPa 0,0 l/m O 0,00 h 0 W/m 15,6 km/h (3 Bft)
05.02.2018 07:00 -1,7 C 92 % 1019,7 hPa 0,0 l/m O-NO 0,08 h 7 W/m 15,9 km/h (3 Bft)
05.02.2018 08:00 -1,6 C 91 % 1020,0 hPa 0,0 l/m O 0,00 h 27 W/m 16,2 km/h (3 Bft)
05.02.2018 09:00 -1,6 C 89 % 1020,0 hPa 0,0 l/m O-NO 0,00 h 71 W/m 19,3 km/h (3 Bft)
05.02.2018 10:00 -1,2 C 89 % 1020,2 hPa 0,0 l/m O-NO 0,00 h 82 W/m 16,2 km/h (3 Bft)
05.02.2018 11:00 -1,1 C 88 % 1020,1 hPa 0,0 l/m O-NO 0,00 h 124 W/m 19,4 km/h (3 Bft)
05.02.2018 12:00 -0,8 C 86 % 1019,6 hPa 0,0 l/m O-NO 0,00 h 167 W/m 20,1 km/h (4 Bft)
05.02.2018 13:00 -0,3 C 84 % 1019,3 hPa 0,0 l/m O-NO 0,00 h 193 W/m 19,0 km/h (3 Bft)
05.02.2018 14:00 0,2 C 83 % 1018,9 hPa 0,0 l/m O-NO 0,00 h 156 W/m 20,4 km/h (4 Bft)
05.02.2018 15:00 0,2 C 83 % 1018,6 hPa 0,0 l/m O-NO 0,33 h 121 W/m 15,8 km/h (3 Bft)
05.02.2018 16:00 0,2 C 83 % 1017,8 hPa 0,0 l/m O-NO 0,58 h 77 W/m 17,6 km/h (3 Bft)
05.02.2018 17:00 -0,4 C 84 % 1017,7 hPa 0,0 l/m O-NO 0,00 h 10 W/m 15,3 km/h (3 Bft)
05.02.2018 18:00 -0,8 C 85 % 1017,9 hPa 0,0 l/m O-NO 0,00 h 0 W/m 14,1 km/h (3 Bft)
05.02.2018 19:00 -1,3 C 86 % 1017,7 hPa 0,0 l/m O-NO 0,00 h 0 W/m 13,2 km/h (3 Bft)
05.02.2018 20:00 -1,4 C 87 % 1017,6 hPa 0,0 l/m O-SO 0,00 h 0 W/m 16,4 km/h (3 Bft)
05.02.2018 21:00 -1,3 C 87 % 1017,4 hPa 0,0 l/m O 0,00 h 0 W/m 16,2 km/h (3 Bft)
05.02.2018 22:00 -1,4 C 87 % 1017,0 hPa 0,0 l/m O 0,00 h 0 W/m 12,4 km/h (3 Bft)
05.02.2018 23:00 -1,5 C 87 % 1016,6 hPa 0,0 l/m O 0,00 h 0 W/m 13,7 km/h (3 Bft)
06.02.2018 00:00 -1,5 C 88 % 1016,2 hPa 0,0 l/m O 0,00 h 0 W/m 12,0 km/h (2 Bft)
06.02.2018 01:00 -1,7 C 88 % 1015,8 hPa 0,0 l/m O 0,00 h 0 W/m 12,6 km/h (3 Bft)
06.02.2018 02:00 -1,8 C 89 % 1015,4 hPa 0,0 l/m O-NO 0,00 h 0 W/m 11,7 km/h (2 Bft)
06.02.2018 03:00 -2,0 C 90 % 1014,9 hPa 0,0 l/m O-NO 0,00 h 0 W/m 10,3 km/h (2 Bft)
06.02.2018 04:00 -2,1 C 90 % 1014,4 hPa 0,0 l/m O 0,00 h 0 W/m 9,1 km/h (2 Bft)
06.02.2018 05:00 -2,1 C 91 % 1014,0 hPa 0,0 l/m O-NO 0,00 h 0 W/m 6,4 km/h (2 Bft)
06.02.2018 06:00 -2,1 C 91 % 1013,4 hPa 0,0 l/m O-NO 0,00 h 0 W/m 6,5 km/h (2 Bft)
06.02.2018 07:00 -2,2 C 92 % 1012,9 hPa 0,0 l/m O 0,00 h 5 W/m 5,1 km/h (1 Bft)
06.02.2018 08:00 -2,2 C 92 % 1012,6 hPa 0,0 l/m O-NO 0,00 h 26 W/m 8,1 km/h (2 Bft)
06.02.2018 09:00 -2,1 C 92 % 1012,2 hPa 0,0 l/m O-NO 0,00 h 63 W/m 5,3 km/h (1 Bft)
06.02.2018 10:00 -1,8 C 92 % 1012,1 hPa 0,0 l/m O-NO 0,00 h 78 W/m 5,3 km/h (1 Bft)
06.02.2018 11:00 -1,2 C 90 % 1012,0 hPa 0,0 l/m O-NO 0,08 h 168 W/m 3,5 km/h (1 Bft)
06.02.2018 12:00 0,1 C 87 % 1011,2 hPa 0,0 l/m O-NO 0,67 h 362 W/m 7,8 km/h (2 Bft)
06.02.2018 13:00 1,4 C 82 % 1010,3 hPa 0,0 l/m O 1,00 h 370 W/m 7,6 km/h (2 Bft)
06.02.2018 14:00 2,3 C 79 % 1009,6 hPa 0,0 l/m O 1,00 h 292 W/m 7,2 km/h (2 Bft)
06.02.2018 15:00 2,7 C 78 % 1009,0 hPa 0,0 l/m O 0,92 h 194 W/m 8,8 km/h (2 Bft)
06.02.2018 16:00 2,1 C 80 % 1008,7 hPa 0,0 l/m O-NO 0,25 h 64 W/m 8,3 km/h (2 Bft)
06.02.2018 17:00 1,2 C 82 % 1008,7 hPa 0,0 l/m O-NO 0,08 h 12 W/m 3,2 km/h (1 Bft)
06.02.2018 18:00 0,1 C 84 % 1008,6 hPa 0,0 l/m N 0,00 h 0 W/m 2,3 km/h (1 Bft)
06.02.2018 19:00 -0,8 C 86 % 1008,8 hPa 0,0 l/m N 0,00 h 0 W/m 0,5 km/h (0 Bft)
06.02.2018 20:00 -1,4 C 89 % 1008,6 hPa 0,0 l/m O-NO 0,00 h 0 W/m 2,8 km/h (1 Bft)
06.02.2018 21:00 -1,7 C 91 % 1008,5 hPa 0,0 l/m O-NO 0,00 h 0 W/m 4,7 km/h (1 Bft)
06.02.2018 22:00 -2,1 C 91 % 1008,7 hPa 0,0 l/m N 0,00 h 0 W/m 0,0 km/h (0 Bft)
06.02.2018 23:00 -2,5 C 92 % 1008,5 hPa 0,0 l/m O-NO 0,00 h 0 W/m 2,0 km/h (1 Bft)
07.02.2018 00:00 -2,8 C 92 % 1008,3 hPa 0,0 l/m O-NO 0,00 h 0 W/m 0,9 km/h (0 Bft)
07.02.2018 01:00 -3,1 C 93 % 1008,2 hPa 0,0 l/m N 0,00 h 0 W/m 0,0 km/h (0 Bft)
07.02.2018 02:00 -3,1 C 93 % 1008,1 hPa 0,0 l/m N 0,00 h 0 W/m 0,7 km/h (0 Bft)
07.02.2018 03:00 -3,4 C 94 % 1008,4 hPa 0,0 l/m N 0,00 h 0 W/m 1,5 km/h (1 Bft)
07.02.2018 04:00 -3,3 C 94 % 1008,6 hPa 0,0 l/m O-NO 0,00 h 0 W/m 0,7 km/h (0 Bft)
07.02.2018 05:00 -2,9 C 95 % 1008,9 hPa 0,0 l/m N 0,00 h 0 W/m 0,5 km/h (0 Bft)
07.02.2018 06:00 -2,8 C 95 % 1008,9 hPa 0,0 l/m N 0,00 h 0 W/m 0,3 km/h (0 Bft)
07.02.2018 07:00 -2,7 C 95 % 1009,2 hPa 0,0 l/m N 0,00 h 6 W/m 0,0 km/h (0 Bft)
07.02.2018 08:00 -2,5 C 95 % 1009,7 hPa 0,0 l/m N 0,00 h 18 W/m 0,0 km/h (0 Bft)
07.02.2018 09:00 -2,2 C 95 % 1010,0 hPa 0,0 l/m N 0,00 h 44 W/m 1,5 km/h (1 Bft)
07.02.2018 10:00 -1,9 C 95 % 1010,5 hPa 0,0 l/m O-NO 0,00 h 59 W/m 1,7 km/h (1 Bft)
07.02.2018 11:00 -1,6 C 94 % 1010,7 hPa 0,0 l/m N 0,00 h 75 W/m 0,0 km/h (0 Bft)
07.02.2018 12:00 -1,2 C 93 % 1010,7 hPa 0,0 l/m N 0,00 h 81 W/m 0,0 km/h (0 Bft)
07.02.2018 13:00 -0,7 C 91 % 1010,4 hPa 0,0 l/m O-NO 0,00 h 90 W/m 3,5 km/h (1 Bft)
07.02.2018 14:00 -0,3 C 89 % 1010,5 hPa 0,0 l/m NO 0,00 h 67 W/m 4,3 km/h (1 Bft)
07.02.2018 15:00 -0,3 C 88 % 1011,0 hPa 0,0 l/m N 0,08 h 97 W/m 0,8 km/h (0 Bft)
07.02.2018 16:00 0,1 C 87 % 1011,2 hPa 0,0 l/m N 0,17 h 57 W/m 0,0 km/h (0 Bft)
07.02.2018 17:00 0,1 C 86 % 1011,8 hPa 0,0 l/m N 0,00 h 8 W/m 0,0 km/h (0 Bft)
07.02.2018 18:00 -0,3 C 87 % 1012,6 hPa 0,0 l/m N 0,00 h 0 W/m 0,3 km/h (0 Bft)
07.02.2018 19:00 -0,6 C 89 % 1013,1 hPa 0,0 l/m N 0,00 h 0 W/m 0,1 km/h (0 Bft)
07.02.2018 20:00 -0,8 C 91 % 1013,7 hPa 0,6 l/m N 0,00 h 0 W/m 0,0 km/h (0 Bft)
07.02.2018 21:00 -0,9 C 93 % 1014,1 hPa 0,4 l/m N 0,00 h 0 W/m 0,0 km/h (0 Bft)
07.02.2018 22:00 -1,0 C 93 % 1014,3 hPa 0,4 l/m N 0,00 h 0 W/m 0,0 km/h (0 Bft)
07.02.2018 23:00 -1,3 C 94 % 1014,4 hPa 0,6 l/m N 0,00 h 0 W/m 0,0 km/h (0 Bft)
08.02.2018 00:00 -1,7 C 94 % 1014,8 hPa 0,6 l/m N 0,00 h 0 W/m 0,0 km/h (0 Bft)
08.02.2018 01:00 -1,8 C 94 % 1015,0 hPa 0,4 l/m N 0,00 h 0 W/m 0,0 km/h (0 Bft)
08.02.2018 02:00 -1,9 C 95 % 1015,4 hPa 0,6 l/m N 0,00 h 0 W/m 0,0 km/h (0 Bft)
08.02.2018 03:00 -1,9 C 95 % 1015,4 hPa 0,4 l/m N 0,00 h 0 W/m 0,0 km/h (0 Bft)
08.02.2018 04:00 -2,0 C 95 % 1015,6 hPa 0,0 l/m N 0,00 h 0 W/m 0,0 km/h (0 Bft)
08.02.2018 05:00 -2,1 C 95 % 1015,9 hPa 0,0 l/m N 0,00 h 0 W/m 0,0 km/h (0 Bft)
08.02.2018 06:00 -2,3 C 95 % 1016,4 hPa 0,0 l/m N 0,00 h 0 W/m 0,0 km/h (0 Bft)
08.02.2018 07:00 -2,4 C 95 % 1016,9 hPa 0,0 l/m N 0,00 h 6 W/m 0,0 km/h (0 Bft)
08.02.2018 08:00 -2,3 C 96 % 1017,5 hPa 0,0 l/m N 0,00 h 17 W/m 0,0 km/h (0 Bft)
08.02.2018 09:00 -1,7 C 96 % 1017,8 hPa 0,0 l/m N 0,00 h 39 W/m 0,0 km/h (0 Bft)
08.02.2018 10:00 -0,6 C 96 % 1017,9 hPa 0,0 l/m N 0,00 h 74 W/m 0,0 km/h (0 Bft)
08.02.2018 11:00 0,2 C 94 % 1018,2 hPa 0,0 l/m N 0,25 h 180 W/m 0,0 km/h (0 Bft)
08.02.2018 12:00 0,8 C 88 % 1017,9 hPa 0,0 l/m N 0,67 h 328 W/m 0,7 km/h (0 Bft)
08.02.2018 13:00 0,3 C 86 % 1017,8 hPa 0,0 l/m NO 0,58 h 242 W/m 3,2 km/h (1 Bft)
08.02.2018 14:00 0,1 C 86 % 1017,6 hPa 0,0 l/m NO 0,33 h 199 W/m 2,4 km/h (1 Bft)
08.02.2018 15:00 0,3 C 86 % 1017,5 hPa 0,0 l/m O-NO 1,00 h 229 W/m 2,7 km/h (1 Bft)
08.02.2018 16:00 -0,0 C 87 % 1017,6 hPa 0,0 l/m O-NO 0,42 h 84 W/m 1,7 km/h (1 Bft)
08.02.2018 17:00 -0,3 C 88 % 1017,9 hPa 0,0 l/m N 0,08 h 13 W/m 0,0 km/h (0 Bft)
08.02.2018 18:00 -0,7 C 89 % 1018,2 hPa 0,0 l/m N 0,00 h 0 W/m 0,0 km/h (0 Bft)
08.02.2018 19:00 -1,1 C 90 % 1018,3 hPa 0,0 l/m N 0,00 h 0 W/m 0,0 km/h (0 Bft)
08.02.2018 20:00 -1,3 C 91 % 1018,5 hPa 0,0 l/m N 0,00 h 0 W/m 0,0 km/h (0 Bft)
08.02.2018 21:00 -1,3 C 92 % 1018,4 hPa 0,0 l/m N 0,00 h 0 W/m 0,0 km/h (0 Bft)
08.02.2018 22:00 -1,1 C 93 % 1018,3 hPa 0,0 l/m N 0,00 h 0 W/m 0,1 km/h (0 Bft)
08.02.2018 23:00 -1,2 C 93 % 1018,0 hPa 0,0 l/m N 0,00 h 0 W/m 0,0 km/h (0 Bft)
09.02.2018 00:00 -1,3 C 94 % 1018,0 hPa 0,0 l/m O-NO 0,00 h 0 W/m 0,4 km/h (0 Bft)
09.02.2018 01:00 -1,3 C 93 % 1017,9 hPa 0,0 l/m N 0,00 h 0 W/m 0,0 km/h (0 Bft)
09.02.2018 02:00 -1,3 C 93 % 1017,8 hPa 0,0 l/m N 0,00 h 0 W/m 0,0 km/h (0 Bft)
09.02.2018 03:00 -1,4 C 93 % 1017,5 hPa 0,0 l/m N 0,00 h 0 W/m 0,0 km/h (0 Bft)
09.02.2018 04:00 -1,5 C 93 % 1017,2 hPa 0,0 l/m N 0,00 h 0 W/m 0,0 km/h (0 Bft)
09.02.2018 05:00 -1,6 C 93 % 1017,1 hPa 0,0 l/m N 0,00 h 0 W/m 0,0 km/h (0 Bft)
09.02.2018 06:00 -1,7 C 93 % 1017,0 hPa 0,0 l/m N 0,00 h 0 W/m 0,0 km/h (0 Bft)
09.02.2018 07:00 -1,8 C 93 % 1017,0 hPa 0,0 l/m N 0,00 h 6 W/m 0,0 km/h (0 Bft)
09.02.2018 08:00 -1,8 C 93 % 1016,9 hPa 0,0 l/m N 0,00 h 24 W/m 0,0 km/h (0 Bft)
09.02.2018 09:00 -1,4 C 94 % 1016,5 hPa 0,0 l/m N 0,00 h 75 W/m 0,0 km/h (0 Bft)
09.02.2018 10:00 -0,9 C 92 % 1016,1 hPa 0,0 l/m N 0,00 h 130 W/m 0,0 km/h (0 Bft)
09.02.2018 11:00 -0,3 C 90 % 1015,6 hPa 0,0 l/m N 0,00 h 156 W/m 0,0 km/h (0 Bft)
09.02.2018 12:00 0,0 C 90 % 1014,8 hPa 0,0 l/m N 0,00 h 158 W/m 0,0 km/h (0 Bft)
09.02.2018 13:00 0,4 C 87 % 1014,1 hPa 0,0 l/m O-NO 0,00 h 146 W/m 3,9 km/h (1 Bft)
09.02.2018 14:00 0,8 C 83 % 1013,6 hPa 0,0 l/m O-SO 0,00 h 151 W/m 7,9 km/h (2 Bft)
09.02.2018 15:00 0,8 C 83 % 1013,3 hPa 0,0 l/m S 0,00 h 90 W/m 6,7 km/h (2 Bft)
09.02.2018 16:00 0,7 C 85 % 1013,0 hPa 0,0 l/m S 0,00 h 37 W/m 4,5 km/h (1 Bft)
09.02.2018 17:00 0,6 C 85 % 1013,1 hPa 0,0 l/m S-SW 0,00 h 10 W/m 4,7 km/h (1 Bft)
09.02.2018 18:00 0,3 C 87 % 1013,3 hPa 0,0 l/m S-SW 0,00 h 0 W/m 3,5 km/h (1 Bft)
09.02.2018 19:00 -0,1 C 88 % 1013,8 hPa 0,0 l/m W-SW 0,00 h 0 W/m 7,9 km/h (2 Bft)
09.02.2018 20:00 -0,3 C 88 % 1014,0 hPa 0,0 l/m W-SW 0,00 h 0 W/m 1,3 km/h (1 Bft)
09.02.2018 21:00 -0,5 C 88 % 1014,2 hPa 0,0 l/m N 0,00 h 0 W/m 0,0 km/h (0 Bft)
09.02.2018 22:00 -0,8 C 88 % 1014,3 hPa 0,0 l/m N 0,00 h 0 W/m 0,0 km/h (0 Bft)
09.02.2018 23:00 -0,9 C 89 % 1014,2 hPa 0,0 l/m N 0,00 h 0 W/m 0,4 km/h (0 Bft)
10.02.2018 00:00 -1,1 C 90 % 1014,2 hPa 0,0 l/m N 0,00 h 0 W/m 0,0 km/h (0 Bft)
10.02.2018 01:00 -1,1 C 92 % 1014,5 hPa 0,0 l/m N 0,00 h 0 W/m 0,0 km/h (0 Bft)
10.02.2018 02:00 -1,0 C 92 % 1014,8 hPa 0,0 l/m N 0,00 h 0 W/m 0,0 km/h (0 Bft)
10.02.2018 03:00 -0,9 C 92 % 1014,9 hPa 0,0 l/m N 0,00 h 0 W/m 0,0 km/h (0 Bft)
10.02.2018 04:00 -0,9 C 93 % 1015,0 hPa 0,0 l/m N 0,00 h 0 W/m 0,0 km/h (0 Bft)
10.02.2018 05:00 -1,0 C 93 % 1015,3 hPa 0,0 l/m W-SW 0,00 h 0 W/m 0,8 km/h (0 Bft)
10.02.2018 06:00 -1,2 C 93 % 1015,9 hPa 0,0 l/m N 0,00 h 0 W/m 0,0 km/h (0 Bft)
10.02.2018 07:00 -1,2 C 93 % 1016,3 hPa 0,0 l/m N 0,00 h 8 W/m 0,0 km/h (0 Bft)
10.02.2018 08:00 -1,1 C 94 % 1016,9 hPa 0,0 l/m N 0,00 h 44 W/m 0,0 km/h (0 Bft)
10.02.2018 09:00 -0,6 C 95 % 1017,0 hPa 0,0 l/m N 0,00 h 114 W/m 0,0 km/h (0 Bft)
10.02.2018 10:00 0,4 C 91 % 1017,4 hPa 0,0 l/m N 0,00 h 166 W/m 1,1 km/h (0 Bft)
10.02.2018 11:00 1,3 C 86 % 1017,3 hPa 0,0 l/m W-SW 0,50 h 236 W/m 6,7 km/h (2 Bft)
10.02.2018 12:00 1,6 C 84 % 1016,9 hPa 0,0 l/m W-SW 0,83 h 312 W/m 13,6 km/h (3 Bft)
10.02.2018 13:00 1,8 C 84 % 1016,6 hPa 0,0 l/m SW 0,75 h 277 W/m 12,9 km/h (3 Bft)
10.02.2018 14:00 1,7 C 83 % 1016,5 hPa 0,0 l/m W-SW 0,17 h 147 W/m 13,7 km/h (3 Bft)
10.02.2018 15:00 1,4 C 85 % 1016,5 hPa 0,0 l/m SW 0,00 h 94 W/m 13,2 km/h (3 Bft)
10.02.2018 16:00 1,3 C 84 % 1016,6 hPa 0,0 l/m W-SW 0,00 h 35 W/m 11,0 km/h (2 Bft)
10.02.2018 17:00 1,2 C 84 % 1016,5 hPa 0,0 l/m SW 0,00 h 8 W/m 9,2 km/h (2 Bft)
10.02.2018 18:00 0,8 C 84 % 1016,8 hPa 0,0 l/m SW 0,00 h 0 W/m 7,9 km/h (2 Bft)
10.02.2018 19:00 0,3 C 85 % 1016,9 hPa 0,0 l/m W-SW 0,00 h 0 W/m 9,3 km/h (2 Bft)
10.02.2018 20:00 0,0 C 87 % 1017,0 hPa 0,0 l/m W-SW 0,00 h 0 W/m 8,4 km/h (2 Bft)
10.02.2018 21:00 -0,1 C 88 % 1016,8 hPa 0,0 l/m W-SW 0,00 h 0 W/m 7,8 km/h (2 Bft)
10.02.2018 22:00 -0,1 C 88 % 1016,4 hPa 0,0 l/m W-SW 0,00 h 0 W/m 10,8 km/h (2 Bft)
10.02.2018 23:00 -0,2 C 88 % 1015,8 hPa 0,0 l/m W-SW 0,00 h 0 W/m 6,3 km/h (2 Bft)
11.02.2018 00:00 -0,4 C 90 % 1015,0 hPa 0,0 l/m W-SW 0,00 h 0 W/m 4,0 km/h (1 Bft)
11.02.2018 01:00 -0,6 C 91 % 1014,3 hPa 0,0 l/m SW 0,00 h 0 W/m 8,8 km/h (2 Bft)
11.02.2018 02:00 -0,7 C 93 % 1014,1 hPa 0,0 l/m SW 0,00 h 0 W/m 8,0 km/h (2 Bft)
11.02.2018 03:00 -0,8 C 93 % 1013,1 hPa 0,0 l/m SW 0,00 h 0 W/m 6,3 km/h (2 Bft)
11.02.2018 04:00 -0,9 C 94 % 1012,3 hPa 0,0 l/m SW 0,00 h 0 W/m 3,7 km/h (1 Bft)
11.02.2018 05:00 -1,2 C 94 % 1011,6 hPa 0,0 l/m SW 0,00 h 0 W/m 3,9 km/h (1 Bft)
11.02.2018 06:00 -1,5 C 94 % 1011,0 hPa 0,0 l/m SW 0,00 h 0 W/m 2,7 km/h (1 Bft)
11.02.2018 07:00 -1,1 C 93 % 1010,5 hPa 0,0 l/m SW 0,00 h 7 W/m 14,8 km/h (3 Bft)
11.02.2018 08:00 -0,5 C 90 % 1009,9 hPa 0,0 l/m SW 0,00 h 31 W/m 17,0 km/h (3 Bft)
11.02.2018 09:00 0,3 C 87 % 1009,1 hPa 0,0 l/m SW 0,00 h 96 W/m 21,2 km/h (4 Bft)
11.02.2018 10:00 0,6 C 86 % 1008,6 hPa 0,0 l/m W-SW 0,00 h 128 W/m 24,4 km/h (4 Bft)
11.02.2018 11:00 0,7 C 90 % 1008,3 hPa 0,0 l/m W-SW 0,08 h 176 W/m 21,0 km/h (4 Bft)
11.02.2018 12:00 1,2 C 90 % 1007,8 hPa 0,0 l/m W-SW 0,00 h 171 W/m 20,1 km/h (4 Bft)
11.02.2018 13:00 1,5 C 91 % 1007,1 hPa 0,0 l/m SW 0,00 h 139 W/m 16,6 km/h (3 Bft)
11.02.2018 14:00 1,6 C 92 % 1006,6 hPa 0,0 l/m W-SW 0,00 h 108 W/m 21,6 km/h (4 Bft)
11.02.2018 15:00 1,3 C 94 % 1006,3 hPa 0,4 l/m SW 0,00 h 73 W/m 9,5 km/h (2 Bft)
11.02.2018 16:00 1,2 C 95 % 1006,1 hPa 0,0 l/m SW 0,00 h 29 W/m 12,6 km/h (3 Bft)
11.02.2018 17:00 0,9 C 95 % 1006,1 hPa 0,2 l/m N 0,00 h 7 W/m 1,1 km/h (0 Bft)
11.02.2018 18:00 1,0 C 96 % 1006,5 hPa 0,0 l/m SW 0,00 h 0 W/m 4,5 km/h (1 Bft)
11.02.2018 19:00 0,9 C 96 % 1007,0 hPa 0,2 l/m SW 0,00 h 0 W/m 6,5 km/h (2 Bft)
11.02.2018 20:00 0,7 C 97 % 1007,9 hPa 0,0 l/m SW 0,00 h 0 W/m 9,4 km/h (2 Bft)
11.02.2018 21:00 0,7 C 97 % 1008,6 hPa 1,0 l/m W-SW 0,00 h 0 W/m 5,6 km/h (1 Bft)
11.02.2018 22:00 1,1 C 97 % 1009,2 hPa 0,0 l/m W-SW 0,00 h 0 W/m 9,0 km/h (2 Bft)
11.02.2018 23:00 1,1 C 97 % 1009,4 hPa 0,0 l/m SW 0,00 h 0 W/m 10,9 km/h (2 Bft)
Min-Datum _ 07.02.18 06.02.18 11.02.18 - - - - 05.02.18
_ Min-Zeit 03:40 15:10 16:00 - - - - 00:05
Minimum _ -3,5 C 76 % 1006,0 hPa - - - - 0,0 km/h (0 Bft)
Max-Datum _ 06.02.18 10.02.18 05.02.18 11.02.18 - 05.02.18 10.02.18 11.02.18
_ Max-Zeit 15:10 09:35 10:25 21:15 - 07:55 12:35 14:25
Maximum _ 2,9 C 100 % 1020,3 hPa 1,0 l/m - 0,08 h 673 W/m 32,2 km/h
W-SW (5 Bft)
Durchschnitt _ -0,7 C 90 % 1014,2 hPa #5,8 l/m O-NO #10:55 h 105 W/m 5,8 km/h (1 Bft)